• In Hungary
  • List of Countries
  • For 7 days
  • Water Temperature
  • Satellite Maps
  • Weather Map
  • News
  • Weather Widgets
  • user-avatar
    Login

    Hourly Weather Novoselcy

    Today, 21 July, Saturday

    Time Temperature Precipitation Wind Pressure Humidity
    00:00 +19°C° 0 mm 2 mps 742 mmHg 93%
    01:00 +19°C° 0 mm 2 mps 742 mmHg 93%
    02:00 +20°C° 0 mm 1 mps 742 mmHg 94%
    03:00 +19°C° 0 mm 1 mps 742 mmHg 95%
    04:00 +19°C° 0 mm 2 mps 742 mmHg 94%
    05:00 +19°C° 0 mm 2 mps 742 mmHg 94%
    06:00 +19°C° 0 mm 2 mps 742 mmHg 93%
    07:00 +21°C° 0 mm 2 mps 742 mmHg 87%
    08:00 +23°C° 0 mm 2 mps 742 mmHg 82%
    09:00 +25°C° 0 mm 2 mps 742 mmHg 76%
    10:00 +25°C° 0 mm 2 mps 742 mmHg 73%
    11:00 +26°C° 0 mm 2 mps 742 mmHg 69%
    12:00 +27°C° 0 mm 2 mps 742 mmHg 65%
    13:00 +28°C° 0.8 mm 2 mps 742 mmHg 64%
    14:00 +28°C° 0.8 mm 2 mps 742 mmHg 63%
    15:00 +29°C° 0.8 mm 2 mps 742 mmHg 62%
    16:00 +28°C° 0.5 mm 2 mps 742 mmHg 64%
    17:00 +28°C° 0.5 mm 2 mps 742 mmHg 67%
    18:00 +28°C° 0.5 mm 1 mps 742 mmHg 70%
    19:00 +26°C° 0.4 mm 2 mps 742 mmHg 75%
    20:00 +25°C° 0.4 mm 2 mps 742 mmHg 80%
    21:00 +23°C° 0.4 mm 2 mps 742 mmHg 86%
    22:00 +23°C° 0 mm 2 mps 742 mmHg 88%
    23:00 +21°C° 0 mm 2 mps 742 mmHg 90%

    Tomorrow, 22 July, Sunday

    Time Temperature Precipitation Wind Pressure Humidity
    00:00 +21°C° 0 mm 2 mps 742 mmHg 93%
    01:00 +20°C° 0 mm 2 mps 742 mmHg 94%
    02:00 +20°C° 0 mm 2 mps 742 mmHg 95%
    03:00 +20°C° 0 mm 2 mps 742 mmHg 96%
    04:00 +20°C° 0 mm 2 mps 742 mmHg 95%
    05:00 +20°C° 0 mm 2 mps 743 mmHg 94%
    06:00 +20°C° 0 mm 3 mps 743 mmHg 93%
    07:00 +21°C° 0 mm 3 mps 743 mmHg 89%
    08:00 +24°C° 0 mm 3 mps 743 mmHg 85%
    09:00 +25°C° 0 mm 3 mps 743 mmHg 81%
    10:00 +26°C° 0.3 mm 3 mps 743 mmHg 78%
    11:00 +27°C° 0.3 mm 4 mps 743 mmHg 75%
    12:00 +27°C° 0.3 mm 4 mps 743 mmHg 72%
    13:00 +27°C° 1.5 mm 4 mps 743 mmHg 74%
    14:00 +27°C° 1.5 mm 5 mps 743 mmHg 75%
    15:00 +27°C° 1.5 mm 5 mps 743 mmHg 77%
    16:00 +26°C° 0.2 mm 5 mps 743 mmHg 79%
    17:00 +25°C° 0.2 mm 5 mps 743 mmHg 82%
    18:00 +25°C° 0.2 mm 5 mps 743 mmHg 85%
    19:00 +23°C° 0 mm 4 mps 743 mmHg 87%
    20:00 +22°C° 0 mm 4 mps 743 mmHg 89%
    21:00 +21°C° 0 mm 4 mps 743 mmHg 91%
    22:00 +21°C° 0.1 mm 4 mps 743 mmHg 92%
    23:00 +21°C° 0.1 mm 4 mps 743 mmHg 93%

    Day after tomorrow, 23 July, Monday

    Time Temperature Precipitation Wind Pressure Humidity
    00:00 +20°C° 0.1 mm 4 mps 743 mmHg 94%
    01:00 +20°C° 0.4 mm 4 mps 743 mmHg 95%
    02:00 +20°C° 0.4 mm 4 mps 743 mmHg 95%
    03:00 +20°C° 0.4 mm 4 mps 744 mmHg 96%
    04:00 +20°C° 0.3 mm 4 mps 744 mmHg 95%
    05:00 +20°C° 0.3 mm 4 mps 744 mmHg 95%
    06:00 +20°C° 0.3 mm 4 mps 744 mmHg 94%
    07:00 +21°C° 0.2 mm 4 mps 744 mmHg 91%
    08:00 +22°C° 0.2 mm 4 mps 744 mmHg 87%
    09:00 +25°C° 0.2 mm 4 mps 744 mmHg 84%
    10:00 +26°C° 1.4 mm 4 mps 744 mmHg 79%
    11:00 +27°C° 1.4 mm 4 mps 744 mmHg 74%
    12:00 +28°C° 1.4 mm 5 mps 744 mmHg 69%
    13:00 +28°C° 1.2 mm 5 mps 744 mmHg 70%
    14:00 +28°C° 1.2 mm 5 mps 744 mmHg 71%
    15:00 +28°C° 1.2 mm 5 mps 744 mmHg 72%
    16:00 +27°C° 0.9 mm 4 mps 745 mmHg 76%
    17:00 +26°C° 0.9 mm 4 mps 745 mmHg 80%
    18:00 +25°C° 0.9 mm 4 mps 745 mmHg 84%
    19:00 +23°C° 0.1 mm 4 mps 745 mmHg 85%
    20:00 +23°C° 0.1 mm 4 mps 745 mmHg 87%
    21:00 +22°C° 0.1 mm 4 mps 746 mmHg 89%
    22:00 +21°C° 0.9 mm 4 mps 746 mmHg 89%
    23:00 +21°C° 0.9 mm 4 mps 746 mmHg 90%

    24 July, Tuesday

    Time Temperature Precipitation Wind Pressure Humidity
    00:00 +20°C° 0.9 mm 5 mps 746 mmHg 91%
    01:00 +20°C° 0.6 mm 4 mps 746 mmHg 91%
    02:00 +19°C° 0.6 mm 4 mps 746 mmHg 92%
    03:00 +19°C° 0.6 mm 4 mps 746 mmHg 93%
    04:00 +19°C° 0.2 mm 4 mps 746 mmHg 91%
    05:00 +19°C° 0.2 mm 4 mps 747 mmHg 89%
    06:00 +19°C° 0.2 mm 4 mps 747 mmHg 88%
    07:00 +20°C° 0 mm 4 mps 747 mmHg 83%
    08:00 +22°C° 0 mm 5 mps 747 mmHg 78%
    09:00 +23°C° 0 mm 5 mps 747 mmHg 74%
    10:00 +23°C° 0 mm 5 mps 747 mmHg 71%
    11:00 +24°C° 0 mm 6 mps 748 mmHg 67%
    12:00 +26°C° 0 mm 6 mps 748 mmHg 64%
    13:00 +26°C° 0 mm 6 mps 748 mmHg 65%
    14:00 +27°C° 0 mm 6 mps 748 mmHg 65%
    15:00 +27°C° 0 mm 6 mps 748 mmHg 66%
    16:00 +26°C° 0.3 mm 5 mps 748 mmHg 68%
    17:00 +26°C° 0.3 mm 5 mps 748 mmHg 70%
    18:00 +25°C° 0.3 mm 4 mps 749 mmHg 72%
    19:00 +23°C° 0 mm 4 mps 749 mmHg 69%
    20:00 +22°C° 0 mm 4 mps 749 mmHg 67%
    21:00 +21°C° 0 mm 5 mps 749 mmHg 65%
    22:00 +21°C° 0 mm 4 mps 749 mmHg 67%
    23:00 +20°C° 0 mm 4 mps 749 mmHg 69%

    25 July, Wednesday

    Time Temperature Precipitation Wind Pressure Humidity
    00:00 +19°C° 0 mm 4 mps 749 mmHg 71%
    01:00 +19°C° 0 mm 4 mps 750 mmHg 71%
    02:00 +19°C° 0 mm 4 mps 750 mmHg 71%
    03:00 +19°C° 0 mm 4 mps 750 mmHg 71%
    04:00 +19°C° 0 mm 4 mps 750 mmHg 73%
    05:00 +19°C° 0 mm 4 mps 750 mmHg 74%
    06:00 +19°C° 0 mm 4 mps 750 mmHg 75%
    07:00 +20°C° 0 mm 5 mps 751 mmHg 74%
    08:00 +20°C° 0 mm 5 mps 751 mmHg 72%
    09:00 +21°C° 0 mm 5 mps 751 mmHg 70%
    10:00 +22°C° 0 mm 6 mps 751 mmHg 68%
    11:00 +22°C° 0 mm 6 mps 751 mmHg 66%
    12:00 +23°C° 0 mm 6 mps 752 mmHg 64%
    13:00 +24°C° 0 mm 6 mps 752 mmHg 61%
    14:00 +26°C° 0 mm 6 mps 751 mmHg 58%
    15:00 +27°C° 0 mm 7 mps 751 mmHg 55%
    16:00 +27°C° 0 mm 6 mps 751 mmHg 59%
    17:00 +26°C° 0 mm 5 mps 752 mmHg 62%
    18:00 +26°C° 0 mm 4 mps 752 mmHg 66%
    19:00 +25°C° 0.1 mm 4 mps 752 mmHg 68%
    20:00 +22°C° 0.1 mm 4 mps 752 mmHg 70%
    21:00 +21°C° 0.1 mm 4 mps 752 mmHg 72%
    22:00 +20°C° 0 mm 4 mps 752 mmHg 71%
    23:00 +20°C° 0 mm 4 mps 752 mmHg 70%

    26 July, Thursday

    Time Temperature Precipitation Wind Pressure Humidity
    00:00 +19°C° 0 mm 4 mps 752 mmHg 69%
    01:00 +19°C° 0 mm 4 mps 752 mmHg 66%
    02:00 +20°C° 0 mm 4 mps 752 mmHg 63%
    03:00 +20°C° 0 mm 5 mps 752 mmHg 60%
    04:00 +20°C° 0 mm 5 mps 752 mmHg 63%
    05:00 +20°C° 0 mm 5 mps 752 mmHg 67%
    06:00 +20°C° 0 mm 5 mps 752 mmHg 70%
    07:00 +22°C° 0 mm 6 mps 753 mmHg 70%
    08:00 +23°C° 0 mm 6 mps 753 mmHg 70%
    09:00 +24°C° 0 mm 7 mps 753 mmHg 70%
    10:00 +26°C° 0 mm 7 mps 753 mmHg 68%
    11:00 +27°C° 0 mm 6 mps 753 mmHg 66%
    12:00 +28°C° 0 mm 6 mps 753 mmHg 64%
    13:00 +29°C° 0 mm 6 mps 753 mmHg 62%
    14:00 +29°C° 0 mm 5 mps 753 mmHg 60%
    15:00 +30°C° 0 mm 5 mps 753 mmHg 58%
    16:00 +30°C° 0 mm 5 mps 753 mmHg 61%
    17:00 +29°C° 0 mm 4 mps 753 mmHg 63%
    18:00 +29°C° 0 mm 4 mps 753 mmHg 65%
    19:00 +28°C° 0 mm 4 mps 753 mmHg 68%
    20:00 +26°C° 0 mm 4 mps 753 mmHg 71%
    21:00 +25°C° 0 mm 5 mps 753 mmHg 74%
    22:00 +25°C° 0 mm 5 mps 753 mmHg 74%
    23:00 +23°C° 0 mm 5 mps 753 mmHg 74%
    Show more